CW1309 Weather Reports


Display with metric or nautical units.
time (UTC)temp
F
wind
direction
speed
MPH
gust
MPH
rain 1hr
in
rain 24hr
in
rain mn
in
humidity
%
barometer
mb
20260905010049 89 87 3.0 6.0 0.00 0.01 0.01 74 1012.6
20260905004549 89 100 6.0 11.0 0.00 0.01 0.01 73 1012.5
20260905003049 90 101 5.0 9.0 0.00 0.01 0.01 72 1012.3
20260905001556 90 121 4.0 10.0 0.00 0.01 0.01 72 1012.1
20260905000047 91 97 4.0 9.0 0.00 0.01 0.01 72 1012.1
20260904234545 91 75 5.0 10.0 0.00 0.01 0.01 72 1012.2
20260904233045 90 98 4.0 12.0 0.00 0.01 0.01 73 1012.2
20260904231544 90 100 3.0 9.0 0.00 0.01 0.01 73 1012.2
20260904230043 90 92 7.0 12.0 0.00 0.01 0.01 73 1012.3
20260904224546 89 92 6.0 15.0 0.00 0.01 0.01 73 1012.4
20260904223042 90 104 8.0 12.0 0.00 0.01 0.01 73 1012.6
20260904221540 90 101 7.0 13.0 0.00 0.01 0.01 72 1012.5
20260904220040 93 104 6.0 11.0 0.00 0.01 0.01 71 1012.5
20260904214535 93 180 2.0 9.0 0.00 0.01 0.01 70 1012.2
20260904213032 93 176 4.0 9.0 0.00 0.01 0.01 70 1012.6
20260904211527 93 183 5.0 10.0 0.00 0.01 0.01 69 1012.9
20260904210026 93 248 5.0 9.0 0.00 0.01 0.01 70 1013.1
20260904204518 93 177 2.0 5.0 0.00 0.01 0.01 69 1013.3
20260904201511 92 223 3.0 6.0 0.00 0.01 0.01 73 1013.6
20260904200014 91 157 2.0 6.0 0.00 0.01 0.01 73 1013.7
20260904194509 91 210 2.0 5.0 0.00 0.01 0.01 73 1013.9
20260904193011 91 198 1.0 5.0 0.00 0.01 0.01 73 1013.9
20260904191508 91 200 4.0 7.0 0.00 0.01 0.01 72 1014.0
20260904190006 91 91 2.0 7.0 0.00 0.01 0.01 73 1014.1
20260904184503 91 160 2.0 7.0 0.00 0.01 0.01 74 1014.3
20260904183113 90 199 3.0 7.0 0.00 0.01 0.01 76 1014.5
20260904181608 90 205 5.0 10.0 0.00 0.01 0.01 77 1014.8
20260904180056 89 246 2.0 8.0 0.00 0.01 0.01 76 1015.0
20260904174559 88 196 5.0 10.0 0.00 0.01 0.01 78 1015.0
20260904173050 88 232 4.0 9.0 0.00 0.01 0.01 83 1015.1
20260904171547 88 170 2.0 7.0 0.00 0.01 0.01 83 1015.4
20260904170044 87 207 3.0 7.0 0.00 0.01 0.01 84 1015.4
20260904164546 86 251 2.0 7.0 0.00 0.01 0.01 87 1015.5
20260904163039 86 250 2.0 5.0 0.00 0.01 0.01 87 1015.7
20260904161536 86 190 4.0 9.0 0.00 0.01 0.01 88 1015.6
20260904160032 85 229 4.0 7.0 0.00 0.01 0.01 89 1015.5
20260904154541 84 170 2.0 8.0 0.00 0.01 0.01 91 1015.4
20260904153026 84 179 2.0 8.0 0.00 0.01 0.01 93 1015.5
20260904151522 83 218 5.0 11.0 0.00 0.01 0.01 93 1014.9
20260904150021 82 178 7.0 10.0 0.00 0.01 0.01 95 1015.2
20260904144518 82 203 3.0 6.0 0.00 0.01 0.01 97 1015.3
20260904143028 81 190 3.0 6.0 0.00 0.01 0.01 99 1015.1
20260904141516 81 105 0.0 0.0 0.00 0.01 0.01 100 1015.1
20260904140032 80 99 0.0 0.0 0.00 0.01 0.01 100 1015.0
20260904134512 80 99 0.0 0.0 0.00 0.01 0.01 100 1014.9
20260904133011 80 99 0.0 0.0 0.00 0.01 0.01 100 1014.7
20260904131618 80 99 0.0 0.0 0.01 0.01 0.01 100 1014.6
20260904130010 80 99 0.0 0.0 0.01 0.01 0.01 100 1014.6
20260904124512 79 82 0.0 0.0 0.01 0.01 0.01 100 1014.6
20260904123007 80 118 0.0 0.0 0.01 0.01 0.01 99 1014.3
20260904121505 80 119 0.0 0.0 0.00 0.00 0.00 99 1014.4
20260904120004 80 119 0.0 0.0 0.00 0.00 0.00 98 1014.2
20260904114503 80 118 0.0 0.0 0.00 0.00 0.00 98 1014.1
20260904113001 80 153 0.0 0.0 0.00 0.00 0.00 97 1014.0
20260904111501 80 153 0.0 0.0 0.00 0.00 0.00 97 1013.9
20260904110100 80 151 0.0 0.0 0.00 0.00 0.00 97 1013.8
20260904104600 80 111 0.0 0.0 0.00 0.00 0.00 97 1013.8
20260904103059 80 111 0.0 0.0 0.00 0.00 0.00 97 1013.9
20260904101559 80 113 0.0 0.0 0.00 0.00 0.00 97 1013.7
20260904100058 80 115 0.0 0.0 0.00 0.00 0.00 97 1013.5
20260904094603 80 158 0.0 0.0 0.00 0.00 0.00 97 1013.6
20260904093100 80 159 0.0 0.0 0.00 0.00 0.00 97 1013.4
20260904091555 80 159 0.0 0.0 0.00 0.00 0.00 97 1013.3
20260904084554 80 159 0.0 0.0 0.00 0.00 0.00 96 1013.1
20260904083055 80 159 0.0 0.0 0.00 0.00 0.00 96 1013.3
20260904081551 80 159 0.0 0.0 0.00 0.00 0.00 96 1013.3
20260904080050 80 159 0.0 0.0 0.00 0.00 0.00 96 1013.4
20260904074550 81 158 0.0 0.0 0.00 0.00 0.00 96 1013.4
20260904073049 81 158 0.0 0.0 0.00 0.00 0.00 95 1013.6
20260904071559 81 158 0.0 0.0 0.00 0.00 0.00 95 1013.6
20260904064543 81 157 0.0 2.0 0.00 0.00 0.00 94 1013.9
20260904063042 81 163 0.0 3.0 0.00 0.00 0.00 94 1013.9
20260904061541 82 167 0.0 6.0 0.00 0.00 0.00 93 1013.8
20260904060038 82 186 1.0 5.0 0.00 0.00 0.00 93 1013.9
20260904054541 82 154 1.0 7.0 0.00 0.00 0.00 92 1013.9
20260904053034 82 157 2.0 5.0 0.00 0.00 0.00 92 1013.9
20260904051532 82 159 3.0 7.0 0.00 0.00 0.00 91 1013.8
20260904050029 83 173 1.0 5.0 0.00 0.00 0.00 90 1013.6
20260904044531 83 108 1.0 7.0 0.00 0.00 0.00 89 1013.5
20260904043028 83 150 1.0 8.0 0.00 0.00 0.00 88 1013.3
20260904041527 83 149 2.0 8.0 0.00 0.00 0.00 88 1013.3
20260904040035 84 144 3.0 9.0 0.00 0.00 0.00 87 1013.3
20260904034533 84 139 2.0 10.0 0.00 0.00 0.00 86 1013.3
20260904033026 84 119 4.0 10.0 0.00 0.00 0.00 86 1013.1
20260904031525 84 107 2.0 6.0 0.00 0.00 0.00 84 1013.1
20260904030125 84 109 2.0 9.0 0.00 0.00 0.00 84 1012.8
20260904024525 85 114 5.0 12.0 0.00 0.00 0.00 83 1012.7
20260904023023 85 107 4.0 9.0 0.00 0.00 0.00 82 1012.5
20260904021528 86 46 1.0 7.0 0.00 0.00 0.00 81 1012.3
20260904020022 86 99 3.0 7.0 0.00 0.00 0.00 80 1012.1
20260904014531 87 106 3.0 8.0 0.00 0.00 0.00 79 1011.9
20260904013023 87 118 4.0 11.0 0.00 0.00 0.00 79 1011.7
20260904011532 87 119 4.0 14.0 0.00 0.00 0.00 79 1011.5